Location: Acequia del Cap
(41.7000°N, 0.6167°E)
Time: 17:07:55
(UTC+00:00)

USA 229 DEB - Pass Details

Date: 07 August 2020
Orbit: 971 x 1241 km, 63.4° (Epoch: 22 September)

Event Time Altitude Azimuth Distance (km) Brightness Sun altitude
Exits shadow 02:48:40 33° 199° (SSW) 1,596 4.1 -20.6°
Maximum altitude 02:51:42 74° 121° (ESE) 1,055 3.6 -20.2°
Drops below altitude 10° 02:58:26 10° 38° (NE) 2,887 7.2 -19.3°
Sets 03:01:10 0° 37° (NE) 3,885 8.2 -18.9°
